Regional Weather Roundup
Issued by NWS

Home | Current Version | Previous Version | Graphics & Text | Print | Product List | Glossary On
Versions: 1 2 3 4 5 6 7 8 9 10 11 12 13 14 15 16 17 18 19 20 21 22 23 24 25 26 27 28 29 30 31 32 33 34 35 36 37 38 39 40 41 42 43 44 45 46 47 48 49
000
ASUS45 KSLC 010510
RWRUT

UTAH REGIONAL WEATHER ROUNDUP
NATIONAL WEATHER SERVICE SALT LAKE CITY UT
1100 PM MDT TUE SEP 30 2014

UTZ001>011-023>025-010600-

NORTHERN UTAH

CITY           SKY/WX    TMP DP  RH WIND       PRES   REMARKS
HILL AFB       PTCLDY    47  46  96 N6        29.97R
LOGAN          NOT AVBL
OGDEN          MOCLDY    49  47  93 E5        29.96R
PROVO AIRPORT  CLOUDY    52  45  76 CALM      29.94F
SALT LAKE CITY PTCLDY    52  48  86 CALM      29.94S
VERNAL         MOCLDY    49  42  77 W5        29.93F
WENDOVER       CLOUDY    54  39  58 W9        29.99R
HEBER CITY     CLOUDY    46  45  93 CALM      29.98S
WEST JORDAN    CLEAR     48  48 100 CALM      29.96S

$$

UTZ012>022-026-027-010600-

SOUTHERN UTAH

CITY           SKY/WX    TMP DP  RH WIND       PRES   REMARKS
BRYCE CANYON   PTCLDY    39  33  79 CALM      30.04F
CEDAR CITY     PTCLDY    53  40  61 S3        29.94F
MILFORD        MOCLDY    57  43  59 NE5G17    29.90R
MOAB/CYNLANDS  CLEAR     55  48  77 CALM      29.88S
PRICE          LGT RAIN  54  40  59 CALM      29.94F
ST GEORGE      CLOUDY    64  39  39 SE8       29.84S
KANAB            N/A     50  41  71 N5        29.97S

$$

REGIONAL REPORTS     COLORADO/ARIZONA

CITY           SKY/WX    TMP DP  RH WIND       PRES   REMARKS
CRAIG, CO      LGT RAIN  47  43  86 N5        30.00R
GRAND JUNCTION PTCLDY    50  45  83 SE3       29.93S
RIFLE          PTCLDY    46  39  76 S3        29.98S
MONTROSE       PTCLDY    46  41  82 S6        30.00S
CORTEZ         CLEAR     45  41  86 E9        29.99F
PAGE, AZ       NOT AVBL
GRAND CANYON   MOCLDY    41  38  89 CALM      30.03S
KINGMAN        CLEAR     62  43  49 S9        29.87F
FLAGSTAFF      CLEAR     46  36  68 CALM      30.08S

$$

REGIONAL REPORTS    NEVADA/IDAHO/WYOMING

CITY           SKY/WX    TMP DP  RH WIND       PRES   REMARKS
LAS VEGAS, NV  CLEAR     77  34  21 SW12      29.73S
ELY            CLOUDY    54  36  50 N12       30.00R
ELKO           CLEAR     49  27  42 N9        30.05R
POCATELLO, ID  CLEAR     47  34  60 SW18G30   29.98S
BURLEY         CLEAR     47  32  56 S15       29.98S
EVANSTON, WY   PTCLDY    38  36  92 SW6       30.01S WCI  33
ROCK SPRINGS   CLOUDY    42  37  82 SW12      29.98R

$$


USA.gov is the U.S. government's official web portal to all federal, state and local government web resources and services.